Location: Unspecified
(0.0000°N, 0.0000°E)
Time: 17:47:21
(UTC+00:00)

STARLINK-11266 [DTC] - Visible Passes

Search period start: 17 April 2026 00:00
Search period end: 27 April 2026 00:00
Orbit: 359 x 360 km, 53.2° (Epoch: 16 April)

Date Brightness Start Highest point End Pass type
(mag) Time Alt. Az. Time Alt. Az. Time Alt. Az.
17 Apr 3.1 05:32:48 10° SW 05:35:42 48° WNW 05:38:35 10° NNE visible
18 Apr 4.7 04:29:02 24° SE 04:29:24 25° SE 04:31:54 10° ENE visible
19 Apr 3.5 04:57:59 32° WNW 04:58:13 32° NW 05:00:55 10° N visible
